Wind_Speed
56 56 56 53 52 50 50 49 49 47 46 45 45 44 43 41 40 39 38 38 38 37 37 37 37 37 38 38 39 39 41 41 42 42 44 45 47 48 49 51 52 54 55
56 57 58 54 52 52 50 49 49 48 47 46 45 44 43 42 41 39 39 39 38 38 38 38 38 38 38 38 39 40 41 42 42 42 43 45 46 48 49 51 53 54 55
55 56 57 55 53 52 51 49 48 48 47 46 45 44 42 41 41 40 39 39 38 38 38 38 38 38 38 39 39 40 41 42 42 43 43 45 46 47 49 51 53 54 55
54 54 55 54 54 52 51 50 49 49 48 47 46 45 43 42 41 40 40 39 38 38 38 38 38 38 39 39 40 40 41 41 42 42 43 44 46 47 49 51 52 53 54
54 54 55 54 53 53 52 50 50 49 48 47 47 46 45 43 42 41 40 39 39 39 38 38 38 38 39 39 39 40 41 41 41 41 43 44 46 47 49 51 52 53 54
52 53 54 54 53 52 51 50 50 49 49 48 47 46 46 44 42 42 40 40 39 38 38 38 38 39 38 39 39 39 39 40 40 42 43 44 46 47 49 51 51 52 54
50 52 53 54 54 53 51 50 49 49 49 48 47 47 46 44 43 42 40 39 39 38 38 38 38 38 38 38 38 38 39 40 40 41 42 44 46 47 49 50 51 52 54
50 51 51 52 53 53 52 51 50 49 48 47 47 46 45 43 42 41 40 39 39 38 38 37 37 37 37 37 38 38 39 39 40 41 43 44 46 47 48 49 50 52 53
49 50 50 52 53 52 52 51 50 49 48 47 46 45 44 43 41 41 40 40 38 38 38 37 37 36 36 36 37 38 38 39 40 41 43 44 45 46 47 48 49 51 53
48 49 50 52 52 52 52 52 51 51 49 47 45 44 44 43 42 41 41 40 39 39 38 37 36 35 35 36 37 38 37 38 40 41 42 43 44 45 45 47 49 51 52
47 49 49 50 51 52 51 50 50 50 49 48 46 45 44 43 43 42 41 40 40 39 38 36 35 35 35 36 36 36 37 38 39 40 41 42 43 44 45 46 49 50 51
46 48 49 50 49 49 49 49 48 47 48 48 47 45 43 42 42 42 41 40 39 38 36 34 34 34 34 34 34 35 37 38 38 39 40 41 42 43 44 46 48 49 50
45 46 47 47 48 49 48 47 47 47 47 47 46 45 43 40 40 40 39 38 37 35 34 34 33 33 33 33 34 35 36 36 37 38 39 40 41 41 43 45 47 49 50
45 46 47 47 47 47 47 46 46 45 44 45 45 44 43 41 39 39 38 37 35 33 32 32 32 32 32 32 33 33 34 35 36 37 38 38 39 40 42 44 46 48 49
45 46 46 48 47 47 47 45 44 43 42 43 42 42 42 41 40 38 36 35 34 32 31 31 31 30 30 31 32 32 33 34 35 36 36 37 38 40 42 44 45 47 48
44 44 45 46 47 47 46 45 44 44 43 42 41 40 40 40 39 38 35 35 33 32 31 30 29 28 29 29 30 31 32 33 34 34 34 36 38 40 41 43 45 46 47
43 44 44 44 45 45 45 45 44 44 44 43 41 40 39 38 38 36 35 34 32 30 29 28 27 27 27 28 29 30 31 32 32 33 34 35 37 39 41 42 44 46 46
42 43 44 44 44 44 44 44 43 43 43 42 41 40 39 37 36 34 34 33 31 30 28 27 26 26 27 28 28 29 30 31 31 32 33 35 36 38 40 42 43 45 45
41 42 42 42 42 43 43 42 42 41 41 41 40 39 38 36 35 34 33 31 30 28 27 26 25 25 26 27 28 29 30 30 30 32 33 34 36 38 39 41 42 43 43
39 40 41 41 41 41 41 40 39 39 40 39 38 37 37 36 35 33 32 30 28 27 26 25 25 25 25 26 28 29 29 29 30 31 32 33 35 37 39 40 41 42 41
39 39 39 39 40 39 39 38 38 37 38 38 37 37 37 36 35 33 31 30 28 27 25 24 24 24 24 25 26 27 28 29 30 31 32 33 35 37 38 39 40 39 39
38 38 38 37 37 37 37 37 37 38 38 37 37 37 36 35 34 33 31 29 26 25 23 23 24 24 24 24 26 26 27 28 29 30 31 32 34 36 37 38 37 37 37
36 36 36 37 37 37 37 37 37 36 37 36 36 35 34 33 33 31 30 28 26 24 23 23 23 23 23 24 26 26 26 27 28 29 30 32 33 35 35 35 35 35 36
35 35 36 37 38 38 37 37 36 36 36 36 35 34 34 33 31 30 29 27 25 24 22 22 22 22 23 25 25 25 25 26 28 29 30 31 33 33 33 33 33 34 34
36 36 36 36 38 38 37 36 35 35 35 35 34 33 32 31 30 28 27 25 24 22 22 21 21 21 23 24 24 24 24 26 27 28 30 31 31 32 32 31 32 33 33
36 36 36 36 37 38 37 35 33 33 34 34 34 33 30 29 28 27 25 24 23 22 21 20 20 21 22 22 22 22 23 25 27 28 30 30 30 30 30 30 31 31 31
Wind_Direction
219 220 221 222 223 224 226 226 227 228 231 234 237 240 243 246 249 252 255 259 262 265 268 272 275 278 282 286 289 293 296 299 301 303 306 308 310 312 314 316 318 319 321
220 220 220 221 223 224 225 227 228 229 232 235 237 240 244 247 250 253 256 259 263 266 269 272 274 277 282 286 289 293 296 299 301 303 306 308 310 312 314 317 319 320 321
220 220 220 221 222 224 224 226 228 230 232 235 237 240 244 248 250 253 256 259 263 266 269 272 274 278 283 286 289 293 296 299 301 304 306 308 310 313 315 318 319 320 321
221 221 220 222 222 223 224 226 228 231 233 235 238 241 244 247 250 253 257 260 263 267 270 272 275 279 283 286 289 293 296 299 301 304 306 309 311 314 316 318 320 321 322
221 221 221 221 223 224 225 226 229 231 233 236 238 241 244 246 250 253 257 260 263 266 269 272 276 280 283 286 290 293 296 299 301 304 307 310 312 314 316 319 320 321 322
222 222 222 222 223 223 225 227 230 231 233 236 239 241 243 246 249 253 256 259 262 265 269 272 276 280 283 286 290 293 296 299 301 304 307 310 312 314 317 319 320 322 323
222 221 222 222 222 224 225 227 229 231 233 236 238 241 244 246 249 252 255 259 262 265 269 272 276 279 282 285 289 292 296 299 301 305 308 311 313 315 317 319 321 323 324
222 221 221 221 222 224 225 227 229 231 233 235 238 241 244 246 249 252 255 257 261 265 269 272 275 278 282 285 289 293 296 299 302 305 308 310 313 315 318 320 322 324 326
221 221 221 222 223 225 226 227 229 230 232 234 237 240 243 245 248 251 254 257 261 265 268 271 274 277 281 285 289 292 296 299 302 306 309 311 313 316 319 321 323 325 326
223 221 221 222 224 225 227 228 229 231 232 234 237 239 242 244 248 251 254 257 261 265 267 269 272 276 281 285 289 292 296 299 302 306 309 312 314 317 319 322 324 326 327
225 223 222 223 225 226 227 228 229 231 232 234 236 238 241 244 248 251 254 257 260 263 266 268 270 276 281 285 289 292 296 299 303 306 310 313 315 318 320 323 325 327 329
225 224 224 225 226 227 228 228 229 231 233 235 236 238 240 244 247 250 253 256 259 261 264 268 271 276 280 285 289 292 295 299 303 307 311 314 316 318 321 324 326 328 329
225 225 226 226 226 227 229 231 231 232 233 235 236 238 240 244 246 249 252 255 259 261 264 267 271 276 280 284 287 291 296 300 305 309 313 315 317 319 323 326 327 329 330
225 226 227 227 227 228 229 231 232 233 235 235 236 238 241 243 246 249 252 254 257 259 263 267 271 276 279 283 287 292 297 302 307 310 313 315 317 321 324 326 328 330 331
224 225 226 227 227 228 229 230 232 233 236 237 238 240 241 243 245 249 251 253 254 257 261 265 271 276 280 284 288 293 299 304 308 311 313 315 318 321 324 327 328 330 331
223 223 224 227 227 228 228 229 231 232 234 236 237 239 240 242 244 246 248 250 251 255 260 266 271 275 281 285 290 295 300 305 309 310 313 316 319 322 325 327 328 330 332
222 222 223 225 226 228 230 230 231 231 232 234 236 238 239 241 243 245 246 249 251 254 260 266 270 275 282 287 292 297 302 306 308 311 314 317 320 323 325 327 329 331 332
223 222 223 224 225 226 229 230 230 232 232 232 233 234 237 239 241 244 246 248 251 255 260 264 270 277 283 288 293 297 301 305 308 312 315 318 320 323 325 327 329 331 332
223 222 221 223 225 225 226 228 229 230 230 230 230 232 234 235 238 240 243 246 250 254 259 264 270 278 285 288 293 298 302 305 309 313 316 318 321 324 326 328 330 332 333
221 220 221 221 221 223 224 225 226 227 228 227 228 231 233 234 235 238 242 245 248 252 257 263 270 279 283 288 294 298 302 305 308 312 315 318 321 324 326 329 331 332 334
219 219 220 220 221 222 222 223 224 224 225 226 227 229 231 232 234 237 239 243 246 250 257 264 272 278 284 289 294 298 301 304 308 312 315 318 321 324 327 329 332 333 335
219 219 219 219 219 219 220 221 223 224 224 224 224 226 228 230 233 235 238 241 244 250 257 265 272 277 283 290 294 298 301 305 310 314 316 319 322 325 328 330 332 334 336
217 217 216 217 215 214 216 218 219 221 222 223 224 225 228 230 232 234 236 239 244 251 258 266 270 274 282 290 294 297 301 306 310 314 317 320 323 326 328 330 333 335 336
216 215 215 215 213 213 213 215 217 219 221 221 221 224 226 228 230 231 234 239 245 250 257 264 269 274 281 287 291 295 301 306 310 314 318 320 323 326 329 331 333 335 337
214 213 214 214 213 212 213 214 215 216 217 218 219 219 221 224 227 229 233 238 243 249 256 261 267 274 281 287 291 293 299 305 310 314 318 320 323 326 328 330 333 334 336
213 213 213 213 212 210 210 210 211 214 215 215 216 217 219 221 224 227 231 236 243 249 254 260 267 276 282 288 291 294 300 306 309 314 317 319 322 325 328 329 331 333 335
Height
5637 5646 5654 5662 5669 5676 5683 5689 5696 5701 5706 5711 5716 5720 5723 5726 5729 5731 5733 5735 5736 5736 5736 5736 5735 5734 5732 5729 5727 5723 5719 5715 5711 5706 5701 5695 5689 5682 5675 5667 5659 5651 5641
5628 5636 5645 5652 5660 5667 5674 5681 5687 5692 5698 5703 5707 5711 5715 5718 5721 5723 5725 5727 5728 5728 5728 5728 5727 5726 5724 5722 5719 5715 5712 5707 5703 5698 5693 5687 5681 5673 5666 5658 5650 5641 5632
5619 5627 5635 5643 5651 5658 5665 5672 5678 5684 5689 5694 5698 5703 5707 5710 5712 5715 5717 5719 5720 5720 5720 5720 5719 5718 5716 5714 5711 5707 5704 5699 5695 5690 5685 5679 5672 5665 5657 5649 5641 5631 5622
5610 5617 5626 5634 5642 5650 5657 5663 5669 5675 5680 5686 5690 5694 5698 5701 5704 5707 5709 5710 5711 5712 5712 5712 5711 5710 5708 5706 5703 5699 5696 5691 5687 5682 5676 5670 5664 5656 5649 5641 5632 5622 5613
5601 5609 5617 5625 5633 5641 5648 5654 5660 5666 5671 5677 5681 5685 5689 5692 5696 5699 5701 5702 5703 5704 5704 5704 5703 5702 5700 5697 5695 5691 5688 5684 5679 5674 5668 5662 5655 5648 5640 5632 5623 5614 5604
5591 5600 5608 5616 5624 5631 5639 5645 5651 5657 5662 5667 5672 5676 5680 5684 5688 5690 5692 5694 5695 5695 5695 5695 5695 5693 5691 5689 5686 5683 5680 5676 5671 5666 5660 5654 5647 5640 5632 5623 5614 5607 5598
5582 5590 5598 5606 5614 5622 5629 5636 5642 5648 5653 5658 5663 5668 5672 5676 5679 5681 5683 5685 5686 5687 5687 5687 5686 5685 5683 5681 5678 5675 5672 5667 5663 5658 5652 5645 5639 5632 5624 5615 5606 5596 5587
5573 5580 5588 5596 5604 5612 5620 5626 5632 5638 5644 5649 5654 5659 5663 5667 5670 5672 5674 5676 5677 5678 5679 5679 5678 5676 5675 5673 5670 5667 5664 5659 5655 5650 5644 5638 5631 5623 5615 5607 5597 5588 5578
5563 5571 5578 5587 5595 5603 5610 5617 5623 5629 5634 5640 5645 5649 5654 5658 5661 5663 5665 5667 5668 5669 5670 5670 5669 5668 5667 5665 5662 5660 5656 5651 5646 5641 5636 5630 5623 5615 5607 5599 5590 5581 5571
5554 5562 5569 5577 5586 5593 5600 5607 5613 5619 5625 5631 5635 5640 5645 5648 5651 5654 5656 5658 5660 5661 5661 5661 5661 5660 5659 5656 5654 5651 5647 5643 5638 5633 5628 5621 5615 5607 5599 5591 5582 5573 5563
5546 5553 5561 5568 5576 5584 5591 5597 5603 5610 5615 5621 5626 5631 5635 5639 5642 5645 5647 5649 5651 5652 5653 5653 5652 5652 5650 5648 5646 5643 5639 5635 5630 5625 5620 5613 5606 5599 5591 5583 5575 5566 5556
5538 5545 5552 5559 5567 5574 5580 5587 5594 5599 5605 5611 5616 5621 5625 5629 5633 5636 5638 5640 5642 5644 5644 5644 5644 5643 5642 5640 5637 5635 5631 5627 5622 5617 5612 5605 5598 5591 5583 5576 5567 5558 5549
5529 5536 5543 5550 5557 5564 5571 5577 5584 5590 5595 5601 5606 5611 5616 5620 5623 5626 5629 5631 5633 5635 5636 5636 5636 5635 5634 5632 5630 5626 5623 5619 5615 5610 5604 5598 5591 5584 5576 5568 5559 5550 5541
5520 5527 5533 5540 5547 5555 5561 5568 5574 5580 5586 5592 5597 5601 5606 5611 5615 5618 5621 5623 5625 5626 5627 5627 5627 5627 5626 5624 5621 5618 5615 5611 5607 5602 5596 5590 5583 5576 5569 5561 5553 5543 5533
5511 5518 5524 5531 5538 5545 5552 5558 5565 5571 5577 5583 5588 5593 5598 5602 5606 5610 5612 5615 5617 5618 5619 5619 5619 5619 5618 5616 5614 5611 5608 5604 5599 5594 5588 5582 5576 5570 5562 5554 5546 5537 5527
5502 5508 5515 5521 5528 5535 5542 5549 5555 5562 5567 5573 5578 5584 5589 5593 5596 5600 5603 5605 5607 5610 5611 5612 5612 5611 5610 5608 5606 5603 5600 5596 5592 5587 5581 5576 5569 5563 5555 5547 5539 5530 5521
5492 5499 5505 5512 5519 5526 5532 5539 5545 5551 5557 5563 5569 5574 5579 5583 5587 5591 5594 5597 5599 5601 5603 5604 5604 5603 5602 5601 5599 5596 5593 5589 5584 5580 5574 5569 5563 5556 5549 5541 5532 5524 5515
5482 5489 5496 5502 5509 5516 5523 5529 5536 5542 5548 5554 5559 5565 5570 5574 5579 5582 5586 5588 5591 5594 5595 5596 5596 5596 5595 5594 5591 5589 5585 5582 5577 5573 5568 5562 5556 5549 5542 5534 5526 5517 5508
5472 5479 5486 5492 5499 5506 5513 5519 5526 5532 5538 5544 5550 5555 5560 5565 5570 5574 5577 5581 5584 5586 5588 5589 5589 5589 5588 5586 5584 5581 5578 5575 5571 5566 5561 5555 5549 5542 5535 5528 5520 5511 5503
5463 5469 5476 5483 5490 5497 5503 5510 5516 5522 5529 5535 5541 5547 5552 5557 5562 5566 5570 5573 5576 5579 5580 5581 5582 5581 5580 5579 5577 5574 5571 5568 5564 5559 5554 5549 5543 5536 5529 5521 5513 5505 5497
5454 5460 5467 5473 5481 5488 5495 5501 5508 5514 5520 5526 5533 5539 5544 5550 5554 5559 5563 5566 5569 5571 5573 5574 5574 5574 5573 5572 5570 5567 5565 5561 5557 5553 5548 5542 5536 5530 5523 5515 5508 5500 5492
5445 5451 5458 5465 5472 5479 5486 5493 5499 5506 5512 5518 5524 5530 5535 5541 5546 5551 5555 5558 5561 5564 5565 5566 5567 5567 5566 5565 5563 5560 5558 5555 5551 5546 5541 5536 5530 5524 5517 5510 5502 5495 5488
5437 5443 5450 5457 5464 5471 5477 5484 5491 5497 5504 5510 5516 5522 5527 5533 5538 5543 5547 5551 5554 5556 5558 5559 5559 5559 5559 5558 5556 5554 5551 5548 5544 5540 5535 5530 5524 5518 5511 5505 5498 5491 5484
5429 5436 5442 5449 5456 5463 5470 5476 5483 5489 5496 5502 5508 5514 5520 5525 5530 5535 5539 5543 5546 5549 5550 5552 5552 5552 5552 5551 5549 5547 5544 5541 5538 5533 5529 5524 5518 5512 5506 5500 5493 5487 5480
5422 5429 5435 5441 5448 5455 5462 5469 5476 5482 5488 5495 5501 5507 5513 5518 5523 5527 5532 5535 5539 5541 5543 5545 5545 5545 5545 5544 5542 5540 5538 5535 5531 5527 5523 5518 5512 5507 5501 5495 5489 5483 5477
5415 5422 5428 5435 5442 5449 5456 5463 5469 5476 5482 5488 5494 5500 5506 5511 5516 5520 5525 5529 5532 5534 5536 5537 5538 5539 5538 5537 5535 5534 5531 5528 5525 5521 5516 5512 5507 5501 5496 5490 5484 5479 5473